Crane Lake, MN

10:19 AM CST on February 13, 2016 (GMT -0600)
Crane Lake

Weather History for KCDD - May, 2013

Change the Weather History Date:

Sunday, May 26, 2013

  Actual Average Record
Temperature  
Mean Temperature 52 °F -  
Max Temperature 73 °F 63 °F 78 °F (2014)
Min Temperature 30 °F 39 °F 26 °F (2011)
Degree Days  
Heating Degree Days 14    
Growing Degree Days 2 (Base 50)    
Moisture  
Dew Point 33 °F    
Average Humidity 50    
Maximum Humidity 93    
Minimum Humidity 22    
Precipitation  
Precipitation 0.00 in - - ()
Sea Level Pressure  
Sea Level Pressure 30.24 in    
Wind  
Wind Speed 1 mph (SE)    
Max Wind Speed 12 mph    
Max Gust Speed 18 mph    
Visibility 10 miles    
Events      
Averages and records for this station are not official NWS values.
T = Trace of Precipitation, MM = Missing Value Source: NWS Daily Summary

Daily Weather History Graph

Daily Weather History Graph

Search for Another Location

Airport or City:

Trip Planner

Search our weather history database for the weather conditions in past years. The results will help you decide how hot, cold, wet, or windy it might be!

Date:

Astronomy

May. 26, 2013 Rise Set
Actual Time 5:17 AM CDT 8:56 PM CDT
Civil Twilight 4:38 AM CDT 9:36 PM CDT
Nautical Twilight 3:45 AM CDT 10:29 PM CDT
Astronomical Twilight 2:31 AM CDT 11:44 PM CDT
Moon 10:42 PM CDT (5/26) 6:49 AM CDT (5/26)
Length of Visible Light 16h 57m
Length of Day
15h 38m
Waning Gibbous, 96% of the Moon is Illuminated
May 26
Waning Gibbous
May 31
Last Quarter
Jun 8
New
Jun 16
First Quarter
Jun 23
Full

Hourly Weather History & Observations

Time (CDT) Temp. Dew Point Humidity Pressure Visibility Wind Dir Wind Speed Gust Speed Precip Events Conditions
12:09 AM 44.6 °F 33.8 °F 66% 30.31 in 10.0 mi Calm Calm - N/A   Clear
12:29 AM 42.8 °F 30.2 °F 61% 30.31 in 10.0 mi Calm Calm - N/A   Clear
12:49 AM 41.0 °F 28.4 °F 61% 30.31 in 10.0 mi Calm Calm - N/A   Clear
1:09 AM 39.2 °F 28.4 °F 65% 30.31 in 10.0 mi Calm Calm - N/A   Clear
1:29 AM 37.4 °F 28.4 °F 70% 30.32 in 10.0 mi Calm Calm - N/A   Clear
1:49 AM 35.6 °F 28.4 °F 75% 30.31 in 10.0 mi Calm Calm - N/A   Clear
2:09 AM 35.6 °F 28.4 °F 75% 30.31 in 10.0 mi Calm Calm - N/A   Clear
2:29 AM 35.6 °F 28.4 °F 75% 30.31 in 10.0 mi Calm Calm - N/A   Clear
2:49 AM 33.8 °F 28.4 °F 81% 30.32 in 10.0 mi Calm Calm - N/A   Clear
3:09 AM 33.8 °F 28.4 °F 81% 30.31 in 10.0 mi Calm Calm - N/A   Clear
3:29 AM 33.8 °F 28.4 °F 81% 30.31 in 10.0 mi Calm Calm - N/A   Clear
3:49 AM 32.0 °F 28.4 °F 87% 30.31 in 10.0 mi Calm Calm - N/A   Clear
4:09 AM 32.0 °F 28.4 °F 87% 30.30 in 10.0 mi Calm Calm - N/A   Clear
4:29 AM 30.2 °F 26.6 °F 86% 30.29 in 10.0 mi Calm Calm - N/A   Clear
4:49 AM 30.2 °F 26.6 °F 86% 30.29 in 10.0 mi Calm Calm - N/A   Clear
5:09 AM 30.2 °F 26.6 °F 86% 30.31 in 10.0 mi Calm Calm - N/A   Clear
5:29 AM 30.2 °F 26.6 °F 86% 30.31 in 10.0 mi Calm Calm - N/A   Clear
5:49 AM 30.2 °F 26.6 °F 86% 30.33 in 10.0 mi Calm Calm - N/A   Clear
6:10 AM 30.2 °F 28.4 °F 93% 30.33 in 10.0 mi Calm Calm - N/A   Clear
6:29 AM 33.8 °F 30.2 °F 87% 30.33 in 10.0 mi Calm Calm - N/A   Clear
6:49 AM 39.2 °F 37.4 °F 93% 30.32 in 10.0 mi Calm Calm - N/A   Clear
7:10 AM 44.6 °F 42.8 °F 93% 30.31 in 10.0 mi Calm Calm - N/A   Clear
7:29 AM 48.2 °F 42.8 °F 82% 30.29 in 10.0 mi Calm Calm - N/A   Clear
7:49 AM 51.8 °F 42.8 °F 71% 30.30 in 10.0 mi Calm Calm - N/A   Clear
8:09 AM 55.4 °F 42.8 °F 63% 30.31 in 10.0 mi Calm Calm - N/A   Clear
8:29 AM 55.4 °F 37.4 °F 51% 30.31 in 10.0 mi Calm Calm - N/A   Clear
8:49 AM 57.2 °F 35.6 °F 44% 30.31 in 10.0 mi East 3.5 mph - N/A   Clear
9:09 AM 60.8 °F 37.4 °F 42% 30.30 in 10.0 mi Calm Calm - N/A   Clear
9:29 AM 60.8 °F 35.6 °F 39% 30.29 in 10.0 mi Calm Calm - N/A   Clear
9:49 AM 62.6 °F 37.4 °F 39% 30.28 in 10.0 mi Calm Calm - N/A   Clear
10:09 AM 62.6 °F 35.6 °F 37% 30.27 in 10.0 mi Calm Calm - N/A   Clear
10:29 AM 64.4 °F 37.4 °F 37% 30.26 in 10.0 mi NE 4.6 mph - N/A   Clear
10:49 AM 66.2 °F 35.6 °F 32% 30.26 in 10.0 mi ESE 3.5 mph - N/A   Clear
11:09 AM 66.2 °F 35.6 °F 32% 30.26 in 10.0 mi SE 4.6 mph - N/A   Clear
11:29 AM 68.0 °F 35.6 °F 30% 30.26 in 10.0 mi Calm Calm - N/A   Clear
11:49 AM 68.0 °F 35.6 °F 30% 30.25 in 10.0 mi South 9.2 mph - N/A   Clear
12:09 PM 66.2 °F 35.6 °F 32% 30.25 in 10.0 mi SSE 5.8 mph 17.3 mph N/A   Clear
12:29 PM 68.0 °F 35.6 °F 30% 30.25 in 10.0 mi South 4.6 mph 17.3 mph N/A   Clear
12:49 PM 69.8 °F 35.6 °F 28% 30.24 in 10.0 mi South 8.1 mph - N/A   Clear
1:09 PM 69.8 °F 35.6 °F 28% 30.23 in 10.0 mi South 6.9 mph - N/A   Clear
1:29 PM 71.6 °F 35.6 °F 27% 30.22 in 10.0 mi SSE 8.1 mph - N/A   Clear
1:49 PM 71.6 °F 35.6 °F 27% 30.22 in 10.0 mi Calm Calm - N/A   Scattered Clouds
2:09 PM 71.6 °F 35.6 °F 27% 30.21 in 10.0 mi SSE 5.8 mph 16.1 mph N/A   Overcast
2:29 PM 71.6 °F 35.6 °F 27% 30.21 in 10.0 mi SSE 11.5 mph 17.3 mph N/A   Scattered Clouds
2:49 PM 71.6 °F 35.6 °F 27% 30.20 in 10.0 mi ESE 8.1 mph - N/A   Clear
3:09 PM 71.6 °F 35.6 °F 27% 30.19 in 10.0 mi South 4.6 mph - N/A   Clear
3:29 PM 73.4 °F 35.6 °F 25% 30.19 in 10.0 mi SSE 3.5 mph - N/A   Clear
3:49 PM 73.4 °F 32.0 °F 22% 30.18 in 10.0 mi SSE 5.8 mph - N/A   Clear
4:09 PM 71.6 °F 32.0 °F 23% 30.17 in 10.0 mi SSE 6.9 mph - N/A   Clear
4:29 PM 73.4 °F 33.8 °F 23% 30.17 in 10.0 mi ESE 5.8 mph - N/A   Clear
4:49 PM 73.4 °F 32.0 °F 22% 30.17 in 10.0 mi SE 8.1 mph - N/A   Clear
5:09 PM 73.4 °F 33.8 °F 23% 30.16 in 10.0 mi ESE 3.5 mph - N/A   Clear
5:29 PM 71.6 °F 32.0 °F 23% 30.16 in 10.0 mi SSE 6.9 mph - N/A   Clear
5:49 PM 71.6 °F 32.0 °F 23% 30.17 in 10.0 mi SE 8.1 mph 18.4 mph N/A   Clear
6:09 PM 69.8 °F 30.2 °F 23% 30.17 in 10.0 mi Calm Calm - N/A   Clear
6:29 PM 68.0 °F 30.2 °F 24% 30.16 in 10.0 mi East 3.5 mph - N/A   Clear
6:49 PM 68.0 °F 32.0 °F 26% 30.16 in 10.0 mi SE 3.5 mph - N/A   Clear
7:09 PM 69.8 °F 32.0 °F 25% 30.16 in 10.0 mi Calm Calm - N/A   Clear
7:29 PM 68.0 °F 30.2 °F 24% 30.16 in 10.0 mi SE 4.6 mph - N/A   Clear
7:49 PM 64.4 °F 30.2 °F 28% 30.16 in 10.0 mi ESE 4.6 mph - N/A   Clear
8:09 PM 62.6 °F 30.2 °F 30% 30.17 in 10.0 mi Calm Calm - N/A   Clear
8:29 PM 60.8 °F 30.2 °F 31% 30.17 in 10.0 mi Calm Calm - N/A   Clear
8:49 PM 57.2 °F 32.0 °F 38% 30.17 in 10.0 mi Calm Calm - N/A   Clear
9:09 PM 55.4 °F 33.8 °F 44% 30.17 in 10.0 mi Calm Calm - N/A   Clear
9:29 PM 53.6 °F 33.8 °F 47% 30.18 in 10.0 mi Calm Calm - N/A   Clear
9:49 PM 51.8 °F 35.6 °F 54% 30.18 in 10.0 mi Calm Calm - N/A   Clear
10:09 PM 51.8 °F 35.6 °F 54% 30.18 in 10.0 mi SE 3.5 mph - N/A   Clear
10:29 PM 51.8 °F 35.6 °F 54% 30.18 in 10.0 mi Calm Calm - N/A   Clear
10:49 PM 51.8 °F 35.6 °F 54% 30.18 in 10.0 mi Calm Calm - N/A   Clear
11:09 PM 48.2 °F 35.6 °F 62% 30.18 in 10.0 mi Calm Calm - N/A   Clear
11:29 PM 48.2 °F 35.6 °F 62% 30.18 in 10.0 mi Calm Calm - N/A   Clear
11:49 PM 48.2 °F 35.6 °F 62% 30.17 in 10.0 mi Calm Calm - N/A   Clear